#timestamp,LO_Frequency,Hit,StdDev 
1460188815.8,286047006.0,N
1460188835.7,286047005.6,N
1460188855.5,286047007.3,N
1460188875.3,286047008.2,N
1460188895.1,286047007.1,N
1460188915.9,286047002.9,N
1460188935.7,286047000.4,N
1460188955.5,286046997.1,N
1460188975.4,286046993.3,N
1460188995.2,286046996.4,N
1460189015.0,286046996.3,N
1460189015.9,286046996.3,N
1460189035.8,286046996.6,N
1460189055.6,286046996.6,N
1460189075.4,286046997.9,N
1460189095.3,286046994.1,N
1460189115.1,286046991.8,N
1460189116.0,286046991.8,N
1460189135.8,286046988.9,N
1460189155.7,286046989.4,N
1460189175.5,286046990.2,N
1460189195.3,286046989.5,N
1460189215.2,286046987.4,N
1460189235.9,286046984.5,N
1460189255.7,286046983.4,N
1460189275.5,286046981.8,N
1460189295.4,286046977.5,N
1460189315.2,286046977.9,N
1460189335.0,286046980.2,N
1460189335.9,286046980.2,N
1460189355.8,286046979.5,N
1460189375.6,286046974.2,N
1460189395.4,286046977.5,N
1460189415.3,286046981.1,N
1460189435.1,286046980.1,N
1460189455.8,286046978.8,N
1460189475.7,286046977.1,N
1460189495.5,286046976.2,Y
1460189515.3,286046987.0,P
1460189535.2,286046986.9,P
1460189555.9,286046985.3,P
1460189575.7,286046986.6,Y
1460189595.6,286047002.3,P
1460189615.4,286047000.8,N
1460189635.2,286046996.6,N
1460189655.1,286046995.1,N
1460189656.0,286046995.1,N
1460189675.8,286046995.4,N
1460189695.6,286046997.3,N
1460189715.5,286046998.7,N
1460189735.3,286047000.9,N
1460189755.1,286046998.6,N
1460189775.9,286047000.8,N
1460189795.7,286047000.9,N
1460189815.5,286046997.4,N
1460189835.3,286046996.9,N
1460189855.2,286046997.7,N
1460189875.0,286046998.9,N
1460189875.9,286046998.9,N
1460189895.7,286046996.6,N
1460189915.6,286046998.1,N
1460189935.4,286047000.2,N
1460189955.2,286046998.4,N
1460189975.1,286046999.5,N
1460189976.0,286046999.5,N
1460189995.8,286046999.3,N
1460190015.6,286047002.1,N
1460190035.5,286047001.5,N
1460190055.3,286047004.2,N
1460190075.1,286047003.6,N
1460190095.9,286047003.7,N
1460190115.7,286047007.2,N
1460190135.5,286047002.9,N
1460190155.4,286047004.2,N
1460190175.2,286047004.6,N
1460190195.0,286047005.4,N
1460190195.9,286047005.4,N
1460190215.8,286047004.8,N
1460190235.6,286047007.6,N
1460190255.4,286047005.3,N
1460190275.2,286047004.3,N
1460190295.1,286047004.2,N
1460190296.0,286047004.2,N
1460190315.8,286047004.4,N
1460190335.6,286047002.0,N
1460190355.5,286047001.5,N
1460190375.3,286046999.8,N
1460190395.1,286047004.4,N
1460190415.9,286047000.3,N
1460190435.7,286047001.4,N
1460190455.5,286046999.9,N
1460190475.4,286047001.1,N
1460190495.2,286046999.0,N
1460190515.0,286046996.5,N
1460190515.9,286046996.5,N
1460190535.8,286046999.5,N
1460190555.6,286046993.9,N
1460190575.4,286046993.7,N
1460190595.3,286046993.4,N
1460190615.1,286046996.7,N
1460190616.0,286046996.7,N
1460190635.8,286046997.8,N
1460190655.7,286046996.0,N
1460190675.5,286046995.9,N
1460190695.3,286046995.0,N
1460190715.1,286046998.7,N
1460190735.9,286046998.6,N
1460190755.7,286047000.5,N
1460190775.5,286047001.0,N
1460190795.4,286047002.4,N
1460190815.2,286047004.3,N
1460190835.0,286047008.4,N
1460190835.9,286047008.4,N
1460190855.8,286047006.5,N
1460190875.6,286047004.9,N
1460190895.4,286047006.7,N
1460190915.3,286047009.2,N
1460190935.1,286047010.5,N
1460190936.0,286047010.5,N
1460190955.8,286047007.7,N
1460190975.7,286047011.0,N
1460190995.5,286047011.9,N
1460191015.3,286047010.3,N
1460191035.2,286047008.5,N
1460191055.9,286047005.9,N
1460191075.7,286047001.2,N
1460191095.5,286047000.3,N
1460191115.4,286046999.8,N
1460191135.2,286047001.4,N
1460191155.0,286047002.1,N
1460191155.9,286047002.1,N
1460191175.8,286047003.6,N
1460191195.6,286047004.2,N
1460191215.4,286047001.8,N
1460191235.3,286047004.3,N
1460191255.1,286047003.0,N
1460191275.8,286047004.2,N
1460191295.7,286047002.1,N
1460191315.5,286046999.9,N
1460191335.3,286047002.8,N
1460191355.2,286047001.9,N
1460191375.9,286047000.0,N
1460191395.7,286047001.4,N
1460191415.6,286047004.3,N
1460191435.4,286047007.5,N
1460191455.2,286047004.6,N
1460191475.0,286047004.9,N
1460191476.0,286047004.9,N
1460191495.8,286047004.3,N
1460191515.6,286047001.8,N
1460191535.4,286046999.7,N
1460191555.3,286046999.9,N
1460191575.1,286047002.0,N
1460191595.8,286047001.7,N
1460191615.7,286047002.2,N
1460191635.5,286047004.4,N
1460191655.3,286047001.3,N
1460191675.2,286047000.5,N
1460191695.9,286047001.5,N
1460191715.7,286047007.5,Y
1460191735.6,286047000.9,P
1460191755.4,286047000.9,N
1460191775.2,286047000.4,N
1460191795.1,286046999.8,N
1460191796.0,286046999.8,N
1460191815.8,286047003.9,Y
1460191835.6,286047002.8,P
1460191855.5,286046998.2,N
1460191875.3,286046996.6,N
1460191895.1,286046997.5,N
1460191915.9,286046996.7,N
1460191935.7,286046995.7,N
1460191955.5,286046997.2,N
1460191975.4,286046999.2,N
1460191995.2,286046998.8,N
1460192015.0,286046998.6,N
1460192015.9,286046998.6,N
1460192035.8,286046999.0,N
1460192055.6,286046997.2,N
1460192075.4,286046998.1,N
1460192095.2,286046996.6,N
1460192115.1,286047001.1,N
1460192116.0,286047001.1,N
1460192135.8,286047002.6,N
1460192155.6,286047001.2,N
1460192175.5,286046999.1,N
1460192195.3,286046999.6,N
1460192215.1,286046994.9,N
1460192235.9,286046995.6,N
1460192255.7,286046995.3,N
1460192275.5,286046997.9,N
1460192295.4,286046997.8,N
1460192315.2,286046996.4,N
1460192335.0,286046996.1,N
1460192335.9,286046996.1,N
1460192355.7,286046996.2,N
1460192375.6,286046998.0,N
1460192395.4,286046994.9,N
